1507284000.7,4414,12.94,72770.3,-1.65,-3.27,-4.69,0,*6A
1507284001.9,4415,12.94,72784.5,-1.63,-3.11,-4.37,0,*63
1507284003.1,4416,12.94,72784.5,-1.63,-4.29,-5.43,0,*6E
1507284004.31,4417,12.94,72778.5,-1.63,-4.93,-6.47,0,*69
1507284005.52,4418,12.94,72776.5,-1.65,-4.53,-5.97,0,*62
1507284006.75,4419,12.94,72778.3,-1.65,-4.05,-5.55,0,*6E
1507284007.99,4420,12.94,72776.8,-1.65,-4.01,-5.43,0,*67
1507284009.27,4421,13.0,72782.0,-1.65,-3.63,-5.19,0,*6A
1507284010.51,4422,12.94,72778.8,-1.65,-4.17,-5.77,0,*65
1507284011.74,4423,12.94,72778.3,-1.65,-4.69,-6.39,0,*64
1507284012.98,4424,12.94,72778.0,-1.65,-4.89,-6.51,0,*63
1507284014.2,4425,12.94,72776.8,-1.67,-4.09,-5.73,0,*6B
1507284015.42,4426,12.94,72774.0,-1.67,-3.67,-5.39,0,*69
1507284016.66,4427,12.94,72766.3,-1.65,-3.67,-5.47,0,*63
1507284017.92,4428,12.94,72762.5,-1.67,-3.59,-5.27,0,*65
1507284019.16,4429,12.94,72768.5,-1.65,-4.05,-5.77,0,*6D
1507284020.38,4430,12.94,72778.3,-1.67,-3.35,-5.11,0,*63
1507284021.63,4431,13.0,72780.3,-1.65,-3.63,-5.47,0,*60
1507284022.88,4432,12.94,72778.3,-1.65,-3.31,-5.07,0,*60
1507284024.13,4433,12.94,72772.5,-1.65,-2.99,-4.69,0,*6B
1507284025.35,4434,13.0,72772.0,-1.63,-3.35,-5.31,0,*61
1507284026.58,4435,13.0,72780.8,-1.63,-3.35,-5.31,0,*60
1507284027.78,4436,12.94,72774.8,-1.63,-2.95,-5.39,0,*60
1507284029.03,4437,12.94,72776.5,-1.61,-3.39,-6.23,0,*6C
1507284030.25,4438,12.94,72778.5,-1.59,-3.07,-5.81,0,*6E
1507284031.45,4439,12.94,72778.3,-1.55,-4.09,-7.11,0,*61
1507284032.67,4440,13.0,72784.0,-1.55,-4.13,-7.31,0,*66
1507284033.89,4441,13.0,72784.3,-1.55,-3.31,-6.19,0,*6B
1507284035.08,4442,12.94,72778.0,-1.51,-3.11,-5.97,0,*6B
1507284036.33,4443,13.0,72778.8,-1.53,-3.87,-6.63,0,*6F
1507284037.54,4444,12.94,72776.8,-1.51,-3.19,-6.23,0,*69
1507284038.78,4445,12.94,72782.5,-1.49,-3.51,-6.89,0,*6D
1507284040.02,4446,13.0,72786.5,-1.49,-3.87,-7.65,0,*66
1507284041.27,4447,13.0,72784.3,-1.47,-5.27,-9.05,0,*6D
1507284042.52,4448,12.94,72782.0,-1.47,-6.59,-10.63,0,*50
1507284043.75,4449,13.0,72784.5,-1.51,-7.11,-11.07,0,*58
1507284045.02,4450,12.94,72782.8,-1.53,-7.95,-11.81,0,*50
1507284046.25,4451,12.94,72780.3,-1.55,-7.31,-11.41,0,*55
1507284047.47,4452,12.94,72784.5,-1.55,-8.21,-11.97,0,*53
1507284048.7,4453,12.94,72780.0,-1.59,-8.17,-11.67,0,*54
1507284049.96,4454,12.94,72780.0,-1.61,-6.97,-10.35,0,*58
1507284051.18,4455,13.0,72786.0,-1.63,-6.59,-9.57,0,*65
1507284052.4,4456,13.0,72784.3,-1.61,-6.85,-9.97,0,*69
1507284053.6,4457,12.94,72784.5,-1.63,-6.89,-10.09,0,*59
1507284054.82,4458,12.94,72782.0,-1.61,-6.77,-9.67,0,*65
1507284056.04,4459,12.94,72782.0,-1.61,-6.77,-9.31,0,*67
1507284057.26,4460,13.0,72764.5,-1.63,-5.65,-7.83,0,*68
1507284058.54,4461,13.0,72762.5,-1.61,-5.65,-7.27,0,*65
1507284059.76,4462,12.94,72760.8,-1.61,-3.87,-5.43,0,*6C
1507284060.98,4463,12.94,72770.5,-1.59,-3.23,-4.89,0,*6F
1507284062.18,4464,12.94,72776.0,-1.55,-3.15,-4.61,0,*67
1507284063.4,4465,12.94,72776.0,-1.51,-2.63,-3.91,0,*6A
1507284064.62,4466,12.94,72770.0,-1.51,-2.51,-3.79,0,*6E
1507284065.83,4467,12.94,72770.5,-1.47,-1.59,-3.11,0,*6D
1507284067.03,4468,13.0,72784.0,-1.45,-1.33,-2.83,0,*66
1507284068.24,4469,13.0,72780.8,-1.43,-1.63,-3.07,0,*69
1507284069.44,4470,13.0,72782.8,-1.39,-1.59,-3.23,0,*63
1507284070.68,4471,13.0,72780.8,-1.31,-3.07,-4.73,0,*61
1507284071.89,4472,13.0,72786.5,-1.35,-2.91,-4.33,0,*6C
1507284073.1,4473,13.0,72784.5,-1.31,-2.91,-4.45,0,*68
1507284074.32,4474,13.0,72786.0,-1.31,-2.95,-4.49,0,*67
1507284075.56,4475,13.0,72788.0,-1.31,-2.95,-4.89,0,*6A
1507284076.81,4476,13.0,72784.8,-1.31,-2.95,-4.73,0,*6C
1507284078.06,4477,13.0,72788.3,-1.31,-3.83,-5.69,0,*61
1507284079.28,4478,13.0,72792.5,-1.29,-3.79,-5.65,0,*6E
1507284080.47,4479,13.0,72792.3,-1.29,-4.61,-6.77,0,*61
1507284081.68,4480,13.0,72784.8,-1.35,-6.31,-8.29,0,*68
1507284082.9,4481,13.0,72788.5,-1.35,-7.23,-8.97,0,*6E
1507284084.14,4482,13.0,72790.3,-1.43,-6.43,-7.95,0,*66
1507284085.39,4483,13.0,72786.8,-1.45,-6.19,-7.73,0,*66
1507284086.61,4484,13.0,72786.0,-1.47,-5.97,-7.11,0,*62
1507284087.83,4485,12.94,72786.8,-1.45,-5.27,-6.47,0,*68
1507284089.08,4486,13.0,72790.0,-1.47,-5.27,-6.35,0,*6C
1507284090.32,4487,13.0,72792.8,-1.49,-5.27,-6.47,0,*66
1507284091.55,4488,13.0,72790.5,-1.51,-5.73,-7.05,0,*66
1507284092.79,4489,13.0,72792.5,-1.51,-5.61,-7.01,0,*60
1507284094.03,4490,13.0,72792.8,-1.53,-6.01,-7.43,0,*69
1507284095.28,4491,13.0,72794.0,-1.55,-6.27,-7.61,0,*6A
1507284096.5,4492,13.0,72794.0,-1.55,-5.81,-7.19,0,*69
1507284097.75,4493,13.0,72794.3,-1.61,-5.81,-7.15,0,*63
1507284098.99,4494,12.94,72790.8,-1.61,-4.73,-6.51,0,*69
1507284100.18,4495,13.0,72794.8,-1.63,-4.41,-6.05,0,*6A
1507284101.43,4496,13.0,72794.3,-1.63,-5.15,-6.97,0,*62
1507284102.64,4497,12.94,72790.5,-1.63,-4.77,-6.59,0,*64
1507284103.88,4498,13.0,72790.8,-1.65,-4.99,-7.01,0,*61
1507284105.07,4499,13.0,72792.0,-1.67,-5.35,-7.15,0,*60
1507284106.34,4500,13.0,72788.0,-1.65,-5.19,-7.01,0,*68
1507284107.58,4501,13.0,72788.0,-1.67,-5.81,-7.73,0,*6F
1507284108.78,4502,13.0,72788.3,-1.67,-5.35,-7.11,0,*67
1507284109.98,4503,13.0,72788.3,-1.67,-5.51,-7.49,0,*69
1507284111.22,4504,13.0,72790.0,-1.71,-5.07,-6.97,0,*68
1507284112.49,4505,13.0,72792.3,-1.69,-5.61,-7.31,0,*6D
1507284113.76,4506,13.0,72788.8,-1.69,-6.27,-8.11,0,*62
1507284114.95,4507,12.94,72790.0,-1.71,-5.55,-7.53,0,*65
1507284116.14,4508,13.0,72794.5,-1.71,-4.61,-6.77,0,*6B
1507284117.36,4509,13.0,72788.5,-1.71,-5.43,-7.77,0,*6A
1507284118.58,4510,13.0,72786.5,-1.71,-4.77,-7.23,0,*65
1507284119.82,4511,13.0,72788.5,-1.73,-5.39,-7.77,0,*6C
1507284121.06,4512,13.0,72792.0,-1.75,-4.81,-7.39,0,*61
1507284122.27,4513,13.0,72788.3,-1.71,-5.39,-8.03,0,*60
1507284123.5,4514,13.0,72794.5,-1.71,-5.65,-8.37,0,*69
1507284124.73,4515,13.0,72792.3,-1.73,-5.93,-8.71,0,*61
1507284125.96,4516,13.0,72792.8,-1.75,-5.55,-8.11,0,*68
1507284127.2,4517,13.0,72792.8,-1.73,-5.39,-7.77,0,*6A
1507284128.47,4518,13.0,72798.0,-1.73,-5.69,-7.77,0,*60
1507284129.68,4519,13.0,72794.3,-1.73,-4.53,-6.35,0,*6E
1507284130.9,4520,13.0,72796.3,-1.71,-4.13,-5.77,0,*67
1507284132.13,4521,13.0,72794.5,-1.71,-3.75,-5.31,0,*63
1507284133.38,4522,13.0,72790.5,-1.67,-3.59,-5.11,0,*6B
1507284134.61,4523,13.0,72794.8,-1.67,-3.83,-5.11,0,*6D
1507284135.89,4524,13.0,72790.8,-1.65,-3.51,-5.19,0,*6F
1507284137.17,4525,13.0,72794.5,-1.65,-4.01,-5.31,0,*66
1507284138.39,4526,13.0,72792.3,-1.65,-3.91,-5.35,0,*6F
1507284139.64,4527,13.0,72792.5,-1.63,-4.73,-6.19,0,*6E
1507284140.83,4528,13.0,72794.5,-1.63,-4.13,-5.43,0,*6B
1507284142.06,4529,13.0,72792.5,-1.61,-4.25,-5.51,0,*6E
1507284143.34,4530,13.0,72794.3,-1.61,-4.01,-5.15,0,*60
1507284144.61,4531,13.0,72794.8,-1.61,-4.89,-6.19,0,*6E
1507284145.83,4532,13.0,72794.0,-1.63,-5.27,-6.47,0,*61
1507284147.07,4533,12.94,72794.3,-1.65,-5.73,-6.89,0,*65
1507284148.31,4534,13.0,72792.0,-1.65,-4.89,-6.01,0,*66
1507284149.57,4535,13.0,72792.5,-1.65,-4.69,-5.85,0,*66
1507284150.76,4536,13.0,72792.8,-1.67,-4.37,-5.47,0,*62
1507284151.95,4537,13.0,72792.5,-1.67,-4.45,-5.51,0,*61
1507284153.2,4538,13.0,72792.0,-1.65,-4.77,-5.73,0,*6D
1507284154.46,4539,13.0,72796.5,-1.65,-4.21,-5.31,0,*69
1507284155.71,4540,13.0,72794.8,-1.67,-3.59,-4.73,0,*6A
1507284156.95,4541,13.0,72790.8,-1.67,-3.59,-4.73,0,*6B
1507284158.21,4542,13.0,72784.5,-1.65,-3.91,-5.11,0,*6B
1507284159.42,4543,13.0,72782.5,-1.65,-4.45,-5.47,0,*67
1507284160.67,4544,13.0,72780.5,-1.65,-3.63,-4.65,0,*62
1507284161.91,4545,13.0,72782.8,-1.65,-3.55,-4.65,0,*66
1507284163.16,4546,13.0,72778.0,-1.65,-3.91,-4.93,0,*64
1507284164.42,4547,13.0,72780.0,-1.65,-3.91,-4.93,0,*65
1507284165.64,4548,13.0,72778.5,-1.63,-4.05,-5.19,0,*65
1507284166.88,4549,13.0,72778.5,-1.63,-3.71,-4.73,0,*6D
1507284168.09,4550,13.0,72782.5,-1.63,-3.39,-4.61,0,*6A
1507284169.34,4551,13.0,72780.5,-1.61,-3.59,-4.61,0,*6F
1507284170.54,4552,13.0,72782.3,-1.63,-3.35,-4.41,0,*66
1507284171.73,4553,13.0,72784.3,-1.63,-3.11,-4.37,0,*60
1507284172.96,4554,13.0,72786.5,-1.61,-2.95,-4.05,0,*69
1507284174.18,4555,13.0,72786.0,-1.61,-2.95,-3.95,0,*66
1507284175.4,4556,13.0,72788.5,-1.59,-3.67,-4.99,0,*69
1507284176.66,4557,13.0,72788.8,-1.59,-3.47,-4.69,0,*65
1507284177.93,4558,13.0,72792.3,-1.61,-3.71,-4.93,0,*61
1507284179.17,4559,13.0,72798.5,-1.61,-4.53,-5.81,0,*65
1507284180.44,4560,13.0,72788.5,-1.61,-3.63,-4.93,0,*69
1507284181.65,4561,13.0,72780.5,-1.59,-3.35,-4.57,0,*68
1507284182.86,4562,13.0,72776.5,-1.59,-4.37,-5.77,0,*6D
1507284184.11,4563,13.0,72776.3,-1.61,-5.27,-6.47,0,*67
1507284185.36,4564,13.0,72782.0,-1.61,-3.87,-5.19,0,*64
1507284186.61,4565,13.0,72778.0,-1.63,-3.59,-4.93,0,*67
1507284187.86,4566,13.0,72774.3,-1.63,-3.47,-4.89,0,*60
1507284189.06,4567,13.0,72776.0,-1.63,-3.19,-4.61,0,*6C
1507284190.26,4568,13.0,72772.0,-1.63,-3.27,-4.65,0,*6A
1507284191.51,4569,13.0,72776.0,-1.63,-3.71,-5.15,0,*6E
1507284192.76,4570,13.0,72786.0,-1.61,-3.87,-5.19,0,*61
1507284194.01,4571,13.0,72788.5,-1.61,-3.39,-4.93,0,*66
1507284195.29,4572,13.0,72786.8,-1.61,-3.47,-5.27,0,*62
1507284196.52,4573,13.0,72788.0,-1.61,-3.95,-5.55,0,*69
1507284197.77,4574,13.0,72786.8,-1.61,-3.87,-5.65,0,*6E
1507284199.03,4575,13.0,72792.8,-1.61,-3.75,-5.69,0,*6E
1507284200.25,4576,13.0,72794.8,-1.63,-5.43,-8.07,0,*69
1507284201.44,4577,13.0,72798.0,-1.63,-5.55,-9.31,0,*6B
1507284202.68,4578,13.0,72788.5,-1.63,-5.69,-10.35,0,*57
1507284203.9,4579,13.0,72786.3,-1.63,-5.81,-10.85,0,*5B
1507284205.13,4580,13.0,72782.8,-1.67,-5.81,-10.89,0,*55
1507284206.38,4581,13.0,72780.0,-1.67,-5.77,-10.71,0,*5A
1507284207.57,4582,13.0,72782.5,-1.67,-6.13,-11.15,0,*5B
1507284208.81,4583,13.0,72786.8,-1.67,-5.93,-10.45,0,*55
1507284210.04,4584,13.0,72782.5,-1.67,-6.51,-11.07,0,*58
1507284211.26,4585,13.0,72780.3,-1.69,-6.39,-10.89,0,*5E
1507284212.49,4586,13.0,72776.0,-1.69,-6.43,-10.57,0,*53
1507284213.73,4587,13.0,72774.3,-1.69,-6.13,-9.41,0,*68
1507284214.97,4588,13.0,72776.8,-1.69,-6.69,-9.61,0,*68
1507284216.22,4589,13.0,72778.8,-1.71,-5.77,-8.07,0,*6D
1507284217.43,4590,13.0,72776.5,-1.69,-6.85,-8.67,0,*64
1507284218.67,4591,13.0,72774.0,-1.69,-7.35,-9.19,0,*67
1507284219.89,4592,13.0,72780.0,-1.71,-8.29,-9.45,0,*66
1507284221.08,4593,13.0,72782.8,-1.71,-6.89,-8.17,0,*65
1507284222.33,4594,13.0,72782.8,-1.71,-6.19,-7.27,0,*67
1507284223.55,4595,13.0,72782.8,-1.71,-5.65,-6.89,0,*6B
1507284224.79,4596,13.0,72780.8,-1.69,-5.61,-6.85,0,*69
1507284226.01,4597,13.0,72782.5,-1.69,-5.39,-6.59,0,*64
1507284227.24,4598,13.0,72784.8,-1.69,-5.11,-6.13,0,*6F
1507284228.48,4599,13.0,72786.8,-1.67,-4.73,-5.73,0,*60
1507284229.72,4600,13.0,72786.5,-1.65,-4.99,-5.89,0,*60
1507284230.94,4601,13.0,72786.5,-1.63,-4.37,-5.03,0,*61
1507284232.15,4602,13.0,72788.3,-1.59,-3.91,-4.09,0,*6B
1507284233.33,4603,13.0,72784.8,-1.51,-2.87,-3.11,0,*6A
1507284234.54,4604,13.0,72786.5,-1.51,-2.91,-3.51,0,*6E
1507284235.75,4605,13.0,72786.0,-1.51,-3.11,-3.67,0,*63
1507284236.99,4606,13.0,72786.5,-1.47,-2.83,-3.59,0,*60
1507284238.21,4607,13.0,72786.8,-1.43,-2.79,-3.75,0,*6E
1507284239.47,4608,13.0,72786.3,-1.43,-2.75,-3.67,0,*6E
1507284240.68,4609,13.0,72786.8,-1.41,-2.67,-3.75,0,*6D
1507284241.95,4610,13.0,72788.0,-1.39,-2.75,-4.01,0,*6D
1507284243.17,4611,13.0,72790.5,-1.31,-2.95,-4.13,0,*69
1507284244.43,4612,13.0,72784.0,-1.31,-3.55,-4.73,0,*61
1507284245.67,4613,13.0,72786.8,-1.27,-4.29,-5.19,0,*66
1507284246.92,4614,13.0,72786.8,-1.27,-4.53,-5.23,0,*65
1507284248.15,4615,13.0,72786.8,-1.27,-4.81,-5.35,0,*6C
1507284249.37,4616,13.0,72790.5,-1.27,-4.17,-4.61,0,*60
1507284250.57,4617,13.0,72784.3,-1.25,-2.91,-3.63,0,*6E
1507284251.8,4618,13.0,72784.0,-1.25,-2.75,-3.47,0,*6D
1507284253.03,4619,13.0,72778.8,-1.23,-3.23,-4.01,0,*6D
1507284254.22,4620,13.0,72772.8,-1.25,-3.23,-3.91,0,*6F
1507284255.46,4621,13.0,72776.5,-1.23,-2.47,-3.15,0,*67
1507284256.66,4622,13.0,72780.0,-1.21,-2.87,-3.63,0,*6B
1507284257.92,4623,13.0,72780.3,-1.19,-1.95,-2.67,0,*64
1507284259.11,4624,13.0,72778.8,-1.17,-2.15,-2.95,0,*6B
1507284260.33,4625,13.0,72782.5,-1.15,-1.63,-2.47,0,*65
1507284261.58,4626,13.0,72780.5,-1.13,-1.71,-2.59,0,*6C
1507284262.82,4627,13.0,72784.0,-1.11,-1.83,-2.71,0,*68
1507284264.05,4628,13.0,72782.5,-1.07,-1.87,-2.83,0,*69
1507284265.28,4629,13.0,72784.8,-1.05,-2.31,-3.43,0,*69
1507284266.56,4630,13.0,72786.8,-1.05,-3.71,-5.07,0,*62
1507284267.78,4631,13.0,72788.8,-1.05,-3.95,-5.35,0,*68
1507284269.03,4632,13.0,72784.8,-1.05,-3.79,-5.23,0,*6E
1507284270.23,4633,13.0,72790.3,-1.03,-2.95,-4.49,0,*67
1507284271.47,4634,13.0,72788.0,-1.05,-2.71,-4.33,0,*61
1507284272.71,4635,13.0,72788.8,-1.05,-2.71,-4.45,0,*61
1507284273.91,4636,13.0,72786.0,-1.03,-2.79,-4.57,0,*6F
1507284275.13,4637,13.0,72786.5,-1.03,-3.27,-4.85,0,*6B
1507284276.38,4638,13.0,72784.3,-1.03,-3.59,-5.27,0,*64
1507284277.65,4639,13.0,72786.5,-1.01,-3.43,-4.93,0,*62
1507284278.9,4640,13.0,72786.3,-1.01,-3.27,-4.69,0,*6B
1507284280.09,4641,13.0,72784.8,-0.99,-3.03,-4.41,0,*56
1507284281.3,4642,13.0,72784.3,-0.97,-3.31,-4.65,0,*5C
1507284282.58,4643,13.0,72786.3,-0.97,-4.01,-5.19,0,*53
1507284283.84,4644,13.0,72782.3,-0.97,-3.51,-4.73,0,*5B
1507284285.05,4645,13.0,72780.3,-0.97,-3.31,-4.41,0,*5D
1507284286.29,4646,13.0,72786.3,-0.97,-3.51,-4.65,0,*5E
1507284287.5,4647,13.0,72786.5,-0.97,-3.23,-4.37,0,*5D
1507284288.74,4648,13.0,72786.8,-0.95,-3.47,-4.73,0,*52
1507284289.98,4649,13.0,72788.5,-0.95,-3.67,-4.81,0,*5C
1507284291.19,4650,13.0,72790.5,-0.93,-2.43,-3.35,0,*5D
1507284292.4,4651,13.0,72788.0,-0.91,-1.87,-2.87,0,*5D
1507284293.63,4652,13.0,72788.8,-0.89,-2.03,-2.99,0,*57
1507284294.84,4653,13.0,72790.8,-0.89,-2.23,-3.27,0,*50
1507284296.07,4654,13.0,72788.0,-0.85,-1.63,-2.63,0,*5D
1507284297.28,4655,13.0,72788.8,-0.83,-2.19,-3.03,0,*53
1507284298.49,4656,13.0,72788.8,-0.83,-1.59,-2.43,0,*52
1507284299.7,4657,13.0,72784.5,-0.81,-0.93,-1.71,0,*64
1507284300.93,4658,13.0,72786.8,-0.75,-0.69,-1.47,0,*60
1507284302.19,4659,13.0,72780.5,-0.75,-1.09,-1.87,0,*5A
1507284303.42,4660,13.0,72782.8,-0.71,-0.65,-1.39,0,*6A
1507284304.66,4661,13.0,72782.5,-0.67,-0.89,-1.67,0,*65
1507284305.89,4662,13.0,72776.8,-0.67,-0.65,-1.43,0,*62
1507284307.07,4663,13.0,72780.3,-0.61,-0.49,-1.33,0,*6C
1507284308.3,4664,13.0,72782.0,-0.59,-0.93,-1.79,0,*69
1507284309.51,4665,13.0,72788.0,-0.57,-0.93,-1.71,0,*6E
1507284310.69,4666,13.0,72792.5,-0.57,-0.81,-1.67,0,*69
1507284311.92,4667,13.0,72796.5,-0.55,-0.89,-1.79,0,*6D
1507284313.16,4668,13.0,72798.5,-0.53,-1.05,-1.99,0,*5F
1507284314.43,4669,13.0,72796.3,-0.51,-1.83,-2.71,0,*57
1507284315.67,4670,13.0,72794.5,-0.51,-1.35,-2.39,0,*5E
1507284316.86,4671,13.0,72796.3,-0.49,-1.21,-2.23,0,*58
1507284318.09,4672,13.0,72794.3,-0.47,-1.59,-2.55,0,*5B
1507284319.33,4673,13.0,72794.5,-0.47,-2.95,-4.01,0,*5E
1507284320.57,4674,13.0,72796.3,-0.47,-2.07,-2.95,0,*59
1507284321.81,4675,13.0,72794.5,-0.45,-1.91,-2.67,0,*5B
1507284323.04,4676,13.0,72794.3,-0.45,-0.97,-1.83,0,*66
1507284324.29,4677,13.0,72794.5,-0.39,-1.17,-2.03,0,*5E
1507284325.52,4678,13.0,72792.8,-0.39,-1.59,-2.47,0,*5B
1507284326.73,4679,13.0,72790.0,-0.37,-1.47,-2.35,0,*5E
1507284327.99,4680,13.0,72792.8,-0.35,-2.71,-3.71,0,*5D
1507284329.22,4681,13.0,72788.5,-0.37,-2.63,-3.47,0,*58
1507284330.43,4682,13.0,72786.8,-0.37,-3.51,-4.57,0,*5D
1507284331.62,4683,13.0,72784.3,-0.37,-3.15,-4.13,0,*5C
1507284332.81,4684,13.0,72784.0,-0.37,-2.79,-3.75,0,*57
1507284334.03,4685,13.0,72784.8,-0.37,-2.71,-3.63,0,*59
1507284335.29,4686,13.0,72788.3,-0.39,-2.71,-3.63,0,*54
1507284336.54,4687,13.0,72786.5,-0.39,-2.71,-3.67,0,*51
1507284337.75,4688,13.0,72784.0,-0.43,-3.03,-3.91,0,*5E
1507284338.96,4689,13.0,72784.5,-0.43,-3.03,-3.91,0,*5F
1507284340.14,4690,13.0,72786.3,-0.37,-2.35,-3.27,0,*5D
1507284341.38,4691,13.0,72786.0,-0.39,-2.51,-3.35,0,*53
1507284342.62,4692,13.0,72786.3,-0.39,-1.99,-2.79,0,*5E
1507284343.82,4693,13.0,72786.8,-0.43,-2.19,-3.27,0,*53
1507284345.04,4694,13.0,72784.8,-0.39,-3.03,-4.05,0,*54
1507284346.24,4695,13.0,72782.5,-0.39,-2.39,-3.27,0,*5A
1507284347.45,4696,13.0,72786.8,-0.43,-2.15,-3.07,0,*58
1507284348.7,4697,13.0,72784.5,-0.39,-2.51,-3.47,0,*50
1507284349.92,4698,13.0,72786.8,-0.37,-1.99,-2.99,0,*54
1507284351.17,4699,13.0,72788.8,-0.39,-2.63,-3.67,0,*5D
1507284352.41,4700,13.0,72788.0,-0.39,-2.11,-3.11,0,*58
1507284353.64,4701,13.0,72788.5,-0.39,-2.11,-3.23,0,*58
1507284354.88,4702,13.0,72790.8,-0.39,-2.11,-3.15,0,*5E
1507284356.09,4703,13.0,72788.0,-0.37,-1.99,-3.03,0,*55
1507284357.3,4704,13.0,72786.8,-0.37,-2.03,-3.11,0,*51
1507284358.48,4705,13.0,72786.3,-0.37,-2.15,-3.23,0,*56
1507284359.73,4706,13.0,72784.5,-0.35,-2.55,-3.47,0,*51
1507284360.91,4707,13.0,72790.0,-0.37,-2.35,-3.39,0,*5D
1507284362.15,4708,13.0,72790.8,-0.37,-2.75,-4.01,0,*5A
1507284363.38,4709,13.0,72790.3,-0.39,-2.75,-3.75,0,*51
1507284364.59,4710,13.0,72790.0,-0.39,-3.35,-4.45,0,*58
1507284365.85,4711,13.0,72790.0,-0.43,-3.71,-4.69,0,*5A
1507284367.07,4712,13.0,72788.8,-0.43,-2.95,-4.05,0,*58
1507284368.28,4713,13.0,72792.3,-0.43,-3.15,-4.17,0,*53
1507284369.49,4714,13.0,72792.5,-0.43,-3.15,-4.21,0,*51
1507284370.73,4715,13.0,72792.0,-0.47,-3.43,-4.49,0,*59
1507284371.97,4716,13.0,72794.8,-0.47,-3.95,-5.03,0,*5E
1507284373.23,4717,13.0,72796.8,-0.47,-3.71,-4.73,0,*53
1507284374.51,4718,13.0,72792.5,-0.51,-4.01,-5.03,0,*5D
1507284375.76,4719,13.0,72792.3,-0.51,-3.91,-5.03,0,*52
1507284377.03,4720,13.0,72794.0,-0.51,-4.01,-4.89,0,*55
1507284378.22,4721,13.0,72792.3,-0.53,-3.91,-4.99,0,*59
1507284379.42,4722,13.0,72792.3,-0.53,-4.81,-5.97,0,*53
1507284380.68,4723,13.0,72794.0,-0.55,-4.81,-5.85,0,*57
1507284381.92,4724,13.0,72790.3,-0.55,-3.63,-4.53,0,*51
1507284383.1,4725,13.0,72790.5,-0.57,-3.23,-4.25,0,*57
1507284384.31,4726,13.0,72792.8,-0.59,-2.99,-3.95,0,*56
1507284385.55,4727,13.0,72794.3,-0.59,-2.99,-4.01,0,*5D
1507284386.78,4728,13.0,72796.3,-0.59,-3.31,-4.21,0,*53
1507284387.99,4729,13.0,72792.8,-0.59,-3.35,-4.45,0,*54
1507284389.2,4730,13.0,72792.3,-0.59,-2.91,-3.87,0,*5A
1507284390.38,4731,13.0,72796.3,-0.57,-2.95,-3.87,0,*51
1507284391.57,4732,13.0,72794.5,-0.61,-2.95,-3.91,0,*50
1507284392.79,4733,13.0,72794.3,-0.59,-3.11,-4.09,0,*51
1507284394.02,4734,13.0,72792.3,-0.59,-3.07,-4.01,0,*59
1507284395.27,4735,13.0,72790.3,-0.59,-2.95,-4.01,0,*52
1507284396.48,4736,13.0,72784.0,-0.59,-2.91,-3.95,0,*5F
1507284397.69,4737,13.0,72784.3,-0.59,-2.99,-4.13,0,*5F
1507284398.96,4738,13.0,72782.5,-0.59,-3.71,-4.73,0,*51
1507284400.17,4739,13.0,72782.3,-0.59,-3.19,-4.13,0,*58
1507284401.41,4740,13.0,72778.3,-0.59,-3.47,-4.45,0,*5E
1507284402.62,4741,13.0,72774.3,-0.61,-3.71,-4.61,0,*57
1507284403.86,4742,13.0,72772.5,-0.63,-3.51,-4.41,0,*56
1507284405.05,4743,13.0,72772.0,-0.61,-3.27,-4.29,0,*5A
1507284406.31,4744,13.0,72770.8,-0.63,-3.71,-4.69,0,*58
1507284407.56,4745,13.0,72780.0,-0.63,-3.83,-4.69,0,*54
1507284408.77,4746,13.0,72780.0,-0.67,-2.99,-3.95,0,*5D
1507284409.98,4747,13.06,72786.3,-0.67,-2.99,-4.05,0,*52
1507284411.2,4748,13.0,72782.8,-0.67,-3.31,-4.29,0,*50
1507284412.43,4749,13.0,72776.8,-0.67,-4.45,-5.61,0,*58
1507284413.66,4750,13.06,72778.3,-0.69,-4.85,-5.89,0,*54
1507284414.87,4751,13.0,72778.5,-0.69,-4.13,-5.11,0,*5B
1507284416.12,4752,13.0,72780.3,-0.69,-4.01,-5.03,0,*58
1507284417.35,4753,13.0,72780.8,-0.71,-3.43,-4.49,0,*5E
1507284418.6,4754,13.06,72790.5,-0.71,-3.91,-4.77,0,*5B
1507284419.86,4755,13.06,72796.0,-0.71,-3.71,-4.69,0,*5B
1507284421.07,4756,13.0,72792.3,-0.73,-3.47,-4.61,0,*57
1507284422.27,4757,13.06,72796.0,-0.73,-4.53,-5.61,0,*55
1507284423.49,4758,13.0,72792.8,-0.73,-3.51,-4.41,0,*5C
1507284424.7,4759,13.0,72788.3,-0.73,-3.63,-4.61,0,*5E
1507284425.94,4760,13.0,72788.5,-0.75,-3.47,-4.53,0,*55
1507284427.13,4761,13.0,72784.8,-0.73,-3.27,-4.25,0,*55
1507284428.31,4762,13.0,72790.3,-0.73,-3.15,-4.17,0,*56
1507284429.54,4763,13.0,72790.3,-0.73,-3.71,-4.73,0,*57
1507284430.78,4764,13.0,72786.5,-0.73,-3.59,-4.73,0,*5A
1507284431.99,4765,13.0,72786.8,-0.73,-2.95,-4.01,0,*5F
1507284433.22,4766,13.06,72788.3,-0.73,-2.47,-3.59,0,*59
1507284434.44,4767,13.0,72786.8,-0.71,-4.33,-5.51,0,*51
1507284435.66,4768,13.0,72788.5,-0.71,-5.11,-6.13,0,*5A
1507284436.87,4769,13.0,72788.0,-0.71,-3.19,-3.95,0,*5E
1507284438.07,4770,13.0,72790.0,-0.71,-2.35,-3.23,0,*54
1507284439.31,4771,13.0,72790.8,-0.67,-1.79,-2.51,0,*5D
1507284440.51,4772,13.06,72794.8,-0.67,-2.43,-3.31,0,*53
1507284441.73,4773,13.06,72794.0,-0.67,-3.27,-4.09,0,*5D
1507284442.98,4774,13.0,72790.0,-0.63,-2.71,-3.59,0,*5E
1507284444.2,4775,13.0,72790.5,-0.63,-2.99,-3.75,0,*57
1507284445.41,4776,13.0,72790.0,-0.63,-3.03,-4.13,0,*51
1507284446.63,4777,13.06,72790.0,-0.63,-3.35,-4.29,0,*5C
1507284447.84,4778,13.0,72784.0,-0.61,-4.17,-5.19,0,*54
1507284449.1,4779,13.06,72788.3,-0.63,-4.93,-5.85,0,*5E
1507284450.36,4780,13.06,72790.3,-0.63,-5.03,-5.81,0,*54
1507284451.6,4781,13.0,72786.5,-0.67,-3.95,-4.93,0,*5A
1507284452.81,4782,13.0,72780.0,-0.67,-4.05,-4.99,0,*5D
1507284454.03,4783,13.06,72780.8,-0.69,-3.95,-4.85,0,*51
1507284455.24,4784,13.06,72780.3,-0.69,-3.55,-4.37,0,*53
1507284456.47,4785,13.0,72778.0,-0.67,-2.87,-3.67,0,*50
1507284457.69,4786,13.0,72780.0,-0.69,-2.67,-3.55,0,*52
1507284458.9,4787,13.06,72786.8,-0.67,-3.27,-4.17,0,*59
1507284460.11,4788,13.06,72786.3,-0.69,-3.47,-4.45,0,*59
1507284461.33,4789,13.0,72784.8,-0.67,-3.31,-4.29,0,*5D
1507284462.56,4790,13.06,72784.0,-0.63,-3.11,-4.01,0,*59
1507284463.78,4791,13.06,72784.0,-0.63,-2.95,-3.91,0,*5B
1507284465.03,4792,13.0,72782.0,-0.63,-3.83,-4.93,0,*5B
1507284466.27,4793,13.0,72784.8,-0.63,-3.87,-4.93,0,*5E
1507284467.48,4794,13.0,72786.0,-0.63,-4.29,-5.39,0,*5B
1507284468.7,4795,13.0,72786.0,-0.69,-4.77,-5.81,0,*58
1507284469.92,4796,13.0,72786.3,-0.69,-3.79,-4.85,0,*57
1507284471.15,4797,13.06,72790.5,-0.69,-3.91,-5.03,0,*5F
1507284472.39,4798,13.0,72784.8,-0.69,-4.01,-5.15,0,*59
1507284473.58,4799,13.0,72786.8,-0.69,-4.25,-5.35,0,*5C
1507284474.81,4800,13.06,72794.5,-0.69,-3.55,-4.73,0,*50
1507284476.0,4801,13.06,72792.0,-0.69,-3.03,-4.25,0,*51
1507284477.22,4802,13.06,72792.0,-0.67,-3.31,-4.57,0,*58
1507284478.45,4803,13.0,72784.5,-0.69,-4.73,-5.89,0,*54
1507284479.69,4804,13.0,72782.0,-0.69,-3.67,-4.77,0,*51
1507284480.87,4805,13.06,72774.0,-0.69,-3.19,-4.33,0,*59
1507284482.05,4806,13.0,72768.3,-0.69,-3.35,-4.45,0,*55
1507284483.28,4807,13.06,72764.8,-0.69,-3.67,-4.77,0,*52
1507284484.49,4808,13.06,72768.8,-0.69,-3.67,-4.49,0,*50
1507284485.7,4809,13.06,72780.0,-0.69,-3.59,-4.45,0,*50
1507284486.92,4810,13.06,72776.8,-0.67,-3.27,-4.05,0,*5B
1507284488.15,4811,13.0,72772.3,-0.67,-2.63,-3.19,0,*51
1507284489.36,4812,13.0,72772.8,-0.67,-2.15,-2.79,0,*54
1507284490.57,4813,13.0,72776.0,-0.63,-1.71,-2.27,0,*5B
1507284491.79,4814,13.06,72782.3,-0.61,-1.71,-2.47,0,*58
1507284493.0,4815,13.0,72778.0,-0.57,-1.21,-1.83,0,*52
1507284494.21,4816,13.0,72776.0,-0.53,-0.69,-1.39,0,*69
1507284495.41,4817,13.0,72780.0,-0.53,-0.93,-1.75,0,*65
1507284496.6,4818,13.06,72780.3,-0.49,-2.23,-3.03,0,*5B
1507284497.81,4819,13.0,72782.3,-0.49,-1.63,-2.47,0,*5C
1507284499.0,4820,13.06,72784.0,-0.49,-1.63,-2.39,0,*5F
1507284500.21,4821,13.06,72786.8,-0.45,-1.79,-2.67,0,*52
1507284501.44,4822,13.0,72786.5,-0.45,-1.91,-2.67,0,*57
1507284502.71,4823,13.0,72790.3,-0.43,-1.87,-2.67,0,*57
1507284503.97,4824,13.06,72790.5,-0.39,-1.83,-2.63,0,*5D
1507284505.23,4825,13.06,72784.0,-0.39,-1.95,-2.75,0,*5C
1507284506.47,4826,13.06,72782.8,-0.39,-2.11,-2.91,0,*5A
1507284507.7,4827,13.0,72784.8,-0.39,-1.75,-2.59,0,*5E
1507284508.94,4828,13.06,72794.0,-0.39,-1.99,-2.91,0,*57
1507284510.14,4829,13.0,72786.8,-0.37,-1.91,-2.79,0,*56
1507284511.38,4830,13.06,72790.5,-0.35,-1.71,-2.59,0,*50
1507284512.59,4831,13.06,72794.8,-0.35,-2.19,-3.07,0,*56
1507284513.81,4832,13.06,72792.3,-0.33,-1.71,-2.59,0,*54
1507284515.02,4833,13.06,72786.8,-0.33,-1.75,-2.63,0,*58
1507284516.23,4834,13.06,72782.3,-0.31,-1.79,-2.83,0,*5F
1507284517.44,4835,13.0,72786.0,-0.31,-2.83,-3.91,0,*5A
1507284518.68,4836,13.0,72780.0,-0.31,-3.43,-4.61,0,*5C
1507284519.9,4837,13.0,72778.0,-0.33,-4.21,-5.19,0,*52
1507284521.13,4838,13.0,72782.5,-0.35,-3.35,-4.21,0,*53
1507284522.33,4839,13.0,72786.5,-0.35,-2.83,-3.75,0,*58
1507284523.57,4840,13.06,72784.3,-0.35,-2.67,-3.35,0,*58